星链-2701 (STARLINK-2701 )

导读

STARLINK-2701是美国太空探索技术公司Starlink星座中的一颗卫星,于2021年5月26日发射升空,属于星链互联网卫星项目。星链项目旨在构建全球卫星互联网星座,为全球范围提供低延迟、高速率的宽带互联网接入服务,该卫星承担着拓展星座覆盖范围、完善全球网络连通的任务。

Basic Information
目录编号:
48656
目录名称:
STARLINK-2701
国际标识:
2021-044U
轨道中心:
EARTH
卫星名称:
星链-2701
卫星全名:
星链-2701 (STARLINK-2701 )
卫星状态:
在轨 (已飞行1928 天)
发射日期:
2021-05-26 UTC
国别 :
美国 (US)
星等 :
--
Orbit Information
数据来源 国际轨道数据
星历时间: 2026-09-04T19:50:37+0800
1天前
查看轨道信息
半长轴: 6848.895km
偏心率: 0.0001119
轨道倾角: 53.160°
近地点辐角 78.617°
升交点赤经 1.746°
平近点角 281.496°
近地点: 469.991km
远地点: 471.525km
周期: 94.014分钟
每日圈数: 15.31694
Detailed Information
固有亮度:
5
最大亮度:
2.5
卫星平台:
Starlink V1.0
覆盖范围:
全球
运营商:
太空探索技术公司
运营商所在国:
美国
制造商(研发单位):
太空探索技术公司
制造商所在国:
美国
使用方式:
暂无
Satellite Introduction
星链(Starlink)计划是由太空探索技术公司(SpaceX)提出的一个巨型低轨卫星互联网星座项目,计划在2019年至2024年间在太空搭建由约1.2万颗卫星组成的“星链”网络,其中1584颗将部署在地球上空550千米处的近地轨道,并从2020年开始工作。该卫星仍在工作。
2D Orbit Map
3D Orbit Map
Orbit Altitude Analysis Chart
Orbit Inclination Analysis Chart
Orbit Comprehensive Analysis Chart
View Comprehensive Chart
Conjunction Data List
Event ID Objects TCA Miss Dist (km) Collision Risk Probability Collision Risk Index (CRI) Action
CDM_260907-174204-865605-247921
2026-09-07T
17:42:10+0000
0.711 km
远距离
3.355417E-5 中风险 0.66
CDM_260907-134704-865605-247921
2026-09-07T
13:47:16+0000
1.270 km
极远距离
4.746662E-6 低风险 0.49
CDM_260907-020304-865606-782021
2026-09-07T
02:03:33+0000
2.500 km
极远距离
1.470243E-6 低风险 0.38
CDM_260905-215304-865606-860921
2026-09-05T
21:53:00+0000
2.816 km
极远距离
1.24447E-6 低风险 0.37
CDM_260907-121304-865605-247921
2026-09-07T
12:13:18+0000
2.092 km
极远距离
1.147623E-6 低风险 0.36
CDM_260907-223204-865606-933621
2026-09-07T
22:32:28+0000
2.972 km
极远距离
1.043708E-6 低风险 0.35
CDM_260906-024304-865606-772421
2026-09-06T
02:43:59+0000
2.894 km
极远距离
1.010691E-6 低风险 0.35